Time,TemperatureF,DewpointF,PressureIn,WindDirection,WindDirectionDegrees,WindSpeedMPH,WindSpeedGustMPH,Humidity,HourlyPrecipIn,Conditions,Clouds,dailyrainin,SoftwareType,DateUTC
2013-04-23 00:03:00,43.0,38.0,-100.00,ENE,75,6.0,7.0,82,0.00,,,-99.99,,2013-04-23 04:03:00,
2013-04-23 00:12:00,44.0,39.0,-100.00,East,80,7.0,9.0,82,0.00,,,-99.99,,2013-04-23 04:12:00,
2013-04-23 00:23:00,43.0,38.0,-100.00,East,85,7.0,8.0,83,0.00,,,-99.99,,2013-04-23 04:23:00,
2013-04-23 00:33:00,43.0,38.0,-100.00,East,80,4.0,7.0,83,0.00,,,-99.99,,2013-04-23 04:33:00,
2013-04-23 00:43:00,42.0,38.0,-100.00,East,80,3.0,5.0,84,0.00,,,-99.99,,2013-04-23 04:43:00,
2013-04-23 00:53:00,43.0,38.0,-100.00,ENE,75,4.0,6.0,84,0.00,,,-99.99,,2013-04-23 04:53:00,
2013-04-23 01:02:00,43.0,38.0,-100.00,ENE,75,5.0,6.0,84,0.00,,,-99.99,,2013-04-23 05:02:00,
2013-04-23 01:12:00,43.0,38.0,-100.00,East,80,6.0,7.0,83,0.00,,,-99.99,,2013-04-23 05:12:00,
2013-04-23 01:22:00,42.0,38.0,-100.00,East,80,6.0,7.0,83,0.00,,,-99.99,,2013-04-23 05:22:00,
2013-04-23 01:32:00,42.0,37.0,-100.00,East,80,5.0,6.0,83,0.00,,,-99.99,,2013-04-23 05:32:00,
2013-04-23 01:42:00,42.0,37.0,-100.00,ENE,70,4.0,6.0,84,0.00,,,-99.99,,2013-04-23 05:42:00,
2013-04-23 01:52:00,42.0,38.0,-100.00,NE,55,4.0,4.0,84,0.00,,,-99.99,,2013-04-23 05:52:00,
2013-04-23 02:02:00,42.0,38.0,-100.00,NE,55,4.0,5.0,84,0.00,,,-99.99,,2013-04-23 06:02:00,
2013-04-23 02:12:00,42.0,38.0,-100.00,ENE,60,4.0,5.0,83,0.00,,,-99.99,,2013-04-23 06:12:00,
2013-04-23 02:21:00,42.0,37.0,-100.00,NE,55,5.0,6.0,84,0.00,,,-99.99,,2013-04-23 06:21:00,
2013-04-23 02:33:00,41.0,37.0,-100.00,ENE,60,4.0,6.0,84,0.00,,,-99.99,,2013-04-23 06:33:00,
2013-04-23 02:42:00,41.0,37.0,-100.00,ENE,60,4.0,5.0,84,0.00,,,-99.99,,2013-04-23 06:42:00,
2013-04-23 02:52:00,41.0,37.0,-100.00,ENE,70,4.0,5.0,85,0.00,,,-99.99,,2013-04-23 06:52:00,
2013-04-23 03:02:00,40.0,36.0,-100.00,ENE,75,4.0,6.0,86,0.00,,,-99.99,,2013-04-23 07:02:00,
2013-04-23 03:11:00,39.0,36.0,-100.00,ENE,75,2.0,6.0,88,0.00,,,-99.99,,2013-04-23 07:11:00,
2013-04-23 03:21:00,40.0,38.0,-100.00,East,80,3.0,4.0,89,0.00,,,-99.99,,2013-04-23 07:21:00,
2013-04-23 03:32:00,40.0,37.0,-100.00,NE,45,2.0,4.0,88,0.00,,,-99.99,,2013-04-23 07:32:00,
2013-04-23 03:42:00,40.0,37.0,-100.00,East,85,4.0,4.0,88,0.00,,,-99.99,,2013-04-23 07:42:00,
2013-04-23 03:52:00,40.0,37.0,-100.00,ENE,75,3.0,4.0,89,0.00,,,-99.99,,2013-04-23 07:52:00,
2013-04-23 04:02:00,40.0,37.0,-100.00,ENE,70,2.0,4.0,89,0.00,,,-99.99,,2013-04-23 08:02:00,
2013-04-23 04:11:00,40.0,37.0,-100.00,ENE,60,3.0,3.0,89,0.00,,,-99.99,,2013-04-23 08:11:00,
2013-04-23 04:21:00,40.0,37.0,-100.00,ENE,75,2.0,4.0,89,0.00,,,-99.99,,2013-04-23 08:21:00,
2013-04-23 04:32:00,40.0,37.0,-100.00,ENE,70,2.0,2.0,89,0.00,,,-99.99,,2013-04-23 08:32:00,
2013-04-23 04:42:00,40.0,37.0,-100.00,NE,35,1.0,3.0,89,0.00,,,-99.99,,2013-04-23 08:42:00,
2013-04-23 04:52:00,39.0,36.0,-100.00,NNE,20,0.0,1.0,89,0.00,,,-99.99,,2013-04-23 08:52:00,
2013-04-23 05:02:00,39.0,36.0,-100.00,NE,55,2.0,2.0,90,0.00,,,-99.99,,2013-04-23 09:02:00,
2013-04-23 05:11:00,39.0,37.0,-100.00,East,85,2.0,3.0,90,0.00,,,-99.99,,2013-04-23 09:11:00,
2013-04-23 05:21:00,39.0,37.0,-100.00,ESE,105,1.0,2.0,90,0.00,,,-99.99,,2013-04-23 09:21:00,
2013-04-23 05:33:00,38.0,36.0,-100.00,SE,125,2.0,2.0,91,0.00,,,-99.99,,2013-04-23 09:33:00,
2013-04-23 05:43:00,39.0,37.0,-100.00,SE,135,4.0,5.0,92,0.00,,,-99.99,,2013-04-23 09:43:00,
2013-04-23 05:52:00,39.0,37.0,-100.00,SE,135,4.0,6.0,92,0.00,,,-99.99,,2013-04-23 09:52:00,
2013-04-23 06:03:00,40.0,38.0,-100.00,SE,135,5.0,6.0,92,0.00,,,-99.99,,2013-04-23 10:03:00,
2013-04-23 06:13:00,41.0,39.0,-100.00,SE,135,6.0,9.0,92,0.00,,,-99.99,,2013-04-23 10:13:00,
2013-04-23 06:23:00,42.0,40.0,-100.00,SE,145,8.0,9.0,92,0.00,,,-99.99,,2013-04-23 10:23:00,
2013-04-23 06:33:00,42.0,40.0,-100.00,SE,145,7.0,9.0,91,0.00,,,-99.99,,2013-04-23 10:33:00,
2013-04-23 06:42:00,43.0,41.0,-100.00,SE,145,7.0,9.0,91,0.00,,,-99.99,,2013-04-23 10:42:00,
2013-04-23 06:52:00,43.0,41.0,-100.00,SSE,150,6.0,8.0,90,0.00,,,-99.99,,2013-04-23 10:52:00,
2013-04-23 07:03:00,44.0,41.0,-100.00,SSE,150,7.0,9.0,89,0.00,,,-99.99,,2013-04-23 11:03:00,
2013-04-23 07:12:00,44.0,41.0,-100.00,SSE,155,6.0,9.0,88,0.00,,,-99.99,,2013-04-23 11:12:00,
2013-04-23 07:21:00,45.0,41.0,-100.00,SSE,165,6.0,8.0,86,0.00,,,-99.99,,2013-04-23 11:21:00,
2013-04-23 07:32:00,44.0,41.0,-100.00,South,170,4.0,6.0,86,0.00,,,-99.99,,2013-04-23 11:32:00,
2013-04-23 07:42:00,44.0,41.0,-100.00,South,170,4.0,6.0,86,0.00,,,-99.99,,2013-04-23 11:42:00,
2013-04-23 07:52:00,44.0,40.0,-100.00,SE,140,4.0,6.0,86,0.00,,,-99.99,,2013-04-23 11:52:00,
2013-04-23 08:02:00,45.0,41.0,-100.00,SE,140,6.0,7.0,86,0.00,,,-99.99,,2013-04-23 12:02:00,
2013-04-23 08:12:00,47.0,43.0,-100.00,SE,140,7.0,9.0,86,0.00,,,-99.99,,2013-04-23 12:12:00,
2013-04-23 08:22:00,47.0,42.0,-100.00,SE,145,9.0,11.0,83,0.00,,,-99.99,,2013-04-23 12:22:00,
2013-04-23 08:32:00,49.0,42.0,-100.00,SSE,160,7.0,11.0,76,0.00,,,-99.99,,2013-04-23 12:32:00,
2013-04-23 08:42:00,50.0,42.0,-100.00,South,170,6.0,9.0,73,0.00,,,-99.99,,2013-04-23 12:42:00,
2013-04-23 08:52:00,51.0,42.0,-100.00,South,180,7.0,9.0,71,0.00,,,-99.99,,2013-04-23 12:52:00,
2013-04-23 09:01:00,52.0,42.0,-100.00,South,175,7.0,11.0,69,0.00,,,-99.99,,2013-04-23 13:01:00,
2013-04-23 09:11:00,53.0,42.0,-100.00,South,170,7.0,12.0,67,0.00,,,-99.99,,2013-04-23 13:11:00,
2013-04-23 09:22:00,54.0,43.0,-100.00,South,175,9.0,12.0,65,0.00,,,-99.99,,2013-04-23 13:22:00,
2013-04-23 09:32:00,55.0,42.0,-100.00,South,175,11.0,14.0,61,0.00,,,-99.99,,2013-04-23 13:32:00,
2013-04-23 09:42:00,56.0,42.0,-100.00,South,185,11.0,14.0,60,0.00,,,-99.99,,2013-04-23 13:42:00,
2013-04-23 09:52:00,56.0,42.0,-100.00,South,175,11.0,15.0,58,0.00,,,-99.99,,2013-04-23 13:52:00,
2013-04-23 10:02:00,58.0,42.0,-100.00,South,180,12.0,16.0,55,0.00,,,-99.99,,2013-04-23 14:02:00,
2013-04-23 10:11:00,59.0,43.0,-100.00,South,175,13.0,17.0,55,0.00,,,-99.99,,2013-04-23 14:11:00,
2013-04-23 10:22:00,59.0,42.0,-100.00,South,180,11.0,17.0,53,0.00,,,-99.99,,2013-04-23 14:22:00,
2013-04-23 10:32:00,59.0,43.0,-100.00,South,175,12.0,14.0,54,0.00,,,-99.99,,2013-04-23 14:32:00,
2013-04-23 10:42:00,61.0,43.0,-100.00,South,180,13.0,16.0,51,0.00,,,-99.99,,2013-04-23 14:42:00,
2013-04-23 10:52:00,61.0,43.0,-100.00,South,180,14.0,19.0,50,0.00,,,-99.99,,2013-04-23 14:52:00,
2013-04-23 11:01:00,62.0,43.0,-100.00,South,175,14.0,18.0,49,0.00,,,-99.99,,2013-04-23 15:01:00,
2013-04-23 11:12:00,62.0,43.0,-100.00,South,170,14.0,20.0,49,0.00,,,-99.99,,2013-04-23 15:12:00,
2013-04-23 11:21:00,63.0,43.0,-100.00,South,185,11.0,20.0,47,0.00,,,-99.99,,2013-04-23 15:21:00,
2013-04-23 11:32:00,64.0,43.0,-100.00,SSW,200,10.0,16.0,46,0.00,,,-99.99,,2013-04-23 15:32:00,
2013-04-23 11:42:00,65.0,43.0,-100.00,SSW,200,11.0,17.0,46,0.00,,,-99.99,,2013-04-23 15:42:00,
2013-04-23 11:53:00,65.0,43.0,-100.00,SSW,205,12.0,18.0,44,0.00,,,-99.99,,2013-04-23 15:53:00,
2013-04-23 12:03:00,66.0,43.0,-100.00,South,190,11.0,15.0,43,0.00,,,-99.99,,2013-04-23 16:03:00,
2013-04-23 12:12:00,66.0,43.0,-100.00,SSW,205,14.0,19.0,42,0.00,,,-99.99,,2013-04-23 16:12:00,
2013-04-23 12:23:00,67.0,43.0,-100.00,SSW,195,14.0,20.0,42,0.00,,,-99.99,,2013-04-23 16:23:00,
2013-04-23 12:34:00,67.0,43.0,-100.00,South,180,12.0,18.0,41,0.00,,,-99.99,,2013-04-23 16:34:00,
2013-04-23 12:43:00,67.0,43.0,-100.00,SSW,205,16.0,21.0,41,0.00,,,-99.99,,2013-04-23 16:43:00,
2013-04-23 12:52:00,69.0,44.0,-100.00,SSW,200,12.0,18.0,40,0.00,,,-99.99,,2013-04-23 16:52:00,
2013-04-23 13:02:00,69.0,44.0,-100.00,SSW,200,14.0,21.0,40,0.00,,,-99.99,,2013-04-23 17:02:00,
2013-04-23 13:12:00,69.0,44.0,-100.00,SSW,200,12.0,21.0,40,0.00,,,-99.99,,2013-04-23 17:12:00,
2013-04-23 13:22:00,70.0,44.0,-100.00,South,185,15.0,23.0,39,0.00,,,-99.99,,2013-04-23 17:22:00,
2013-04-23 13:33:00,70.0,44.0,-100.00,SSW,210,12.0,20.0,39,0.00,,,-99.99,,2013-04-23 17:33:00,
2013-04-23 13:42:00,69.0,44.0,-100.00,SSW,200,16.0,21.0,40,0.00,,,-99.99,,2013-04-23 17:42:00,
2013-04-23 13:53:00,69.0,44.0,-100.00,SW,230,17.0,25.0,40,0.00,,,-99.99,,2013-04-23 17:53:00,
2013-04-23 14:02:00,69.0,44.0,-100.00,SSW,205,12.0,24.0,40,0.00,,,-99.99,,2013-04-23 18:02:00,
2013-04-23 14:12:00,69.0,45.0,-100.00,SW,220,18.0,24.0,40,0.00,,,-99.99,,2013-04-23 18:12:00,
2013-04-23 14:22:00,70.0,44.0,-100.00,SSW,205,15.0,21.0,40,0.00,,,-99.99,,2013-04-23 18:22:00,
2013-04-23 14:32:00,70.0,44.0,-100.00,SSW,210,13.0,26.0,40,0.00,,,-99.99,,2013-04-23 18:32:00,
2013-04-23 14:42:00,70.0,44.0,-100.00,SSW,200,17.0,24.0,39,0.00,,,-99.99,,2013-04-23 18:42:00,
2013-04-23 14:52:00,70.0,44.0,-100.00,SW,215,15.0,24.0,39,0.00,,,-99.99,,2013-04-23 18:52:00,
2013-04-23 15:02:00,70.0,44.0,-100.00,South,185,14.0,26.0,39,0.00,,,-99.99,,2013-04-23 19:02:00,
2013-04-23 15:11:00,70.0,44.0,-100.00,South,190,17.0,24.0,39,0.00,,,-99.99,,2013-04-23 19:11:00,
2013-04-23 15:22:00,69.0,44.0,-100.00,SSW,200,21.0,26.0,40,0.00,,,-99.99,,2013-04-23 19:22:00,
2013-04-23 15:32:00,70.0,45.0,-100.00,SSW,210,17.0,26.0,41,0.00,,,-99.99,,2013-04-23 19:32:00,
2013-04-23 15:42:00,69.0,45.0,-100.00,SSW,205,12.0,26.0,41,0.00,,,-99.99,,2013-04-23 19:42:00,
2013-04-23 15:52:00,69.0,46.0,-100.00,SSW,200,14.0,26.0,42,0.00,,,-99.99,,2013-04-23 19:52:00,
2013-04-23 16:02:00,69.0,46.0,-100.00,SSW,200,17.0,25.0,42,0.00,,,-99.99,,2013-04-23 20:02:00,
2013-04-23 16:11:00,69.0,46.0,-100.00,SSW,200,14.0,30.0,43,0.00,,,-99.99,,2013-04-23 20:11:00,
2013-04-23 16:22:00,69.0,46.0,-100.00,SSW,200,18.0,26.0,44,0.00,,,-99.99,,2013-04-23 20:22:00,
2013-04-23 16:32:00,69.0,47.0,-100.00,SSW,210,18.0,24.0,44,0.00,,,-99.99,,2013-04-23 20:32:00,
2013-04-23 16:42:00,69.0,47.0,-100.00,SW,220,16.0,25.0,45,0.00,,,-99.99,,2013-04-23 20:42:00,
2013-04-23 16:52:00,69.0,47.0,-100.00,SW,215,13.0,23.0,46,0.00,,,-99.99,,2013-04-23 20:52:00,
2013-04-23 17:02:00,69.0,47.0,-100.00,SW,225,12.0,22.0,46,0.00,,,-99.99,,2013-04-23 21:02:00,
2013-04-23 17:12:00,69.0,47.0,-100.00,SSW,200,13.0,17.0,46,0.00,,,-99.99,,2013-04-23 21:12:00,
2013-04-23 17:22:00,66.0,48.0,-100.00,South,190,13.0,28.0,52,0.00,,,-99.99,,2013-04-23 21:22:00,
2013-04-23 17:33:00,63.0,53.0,-100.00,SW,225,12.0,25.0,68,0.00,,,-99.99,,2013-04-23 21:33:00,
2013-04-23 17:43:00,64.0,53.0,-100.00,WSW,240,12.0,16.0,69,0.00,,,-99.99,,2013-04-23 21:43:00,
2013-04-23 17:52:00,63.0,55.0,-100.00,SW,220,9.0,14.0,72,0.00,,,-99.99,,2013-04-23 21:52:00,
2013-04-23 18:03:00,63.0,55.0,-100.00,West,260,11.0,14.0,73,0.55,,,-99.99,,2013-04-23 22:03:00,
2013-04-23 18:12:00,59.0,55.0,-100.00,WSW,255,23.0,35.0,87,7.36,,,-99.99,,2013-04-23 22:12:00,
2013-04-23 18:22:00,59.0,56.0,-100.00,West,270,15.0,24.0,92,2.24,,,-99.99,,2013-04-23 22:22:00,
2013-04-23 18:33:00,58.0,57.0,-100.00,WSW,255,15.0,21.0,94,5.67,,,-99.99,,2013-04-23 22:33:00,
2013-04-23 18:42:00,58.0,56.0,-100.00,WSW,255,12.0,20.0,95,2.83,,,-99.99,,2013-04-23 22:42:00,
2013-04-23 18:52:00,57.0,56.0,-100.00,WSW,250,12.0,21.0,95,1.10,,,-99.99,,2013-04-23 22:52:00,
2013-04-23 19:03:00,58.0,56.0,-100.00,SW,235,13.0,18.0,95,1.10,,,-99.99,,2013-04-23 23:03:00,
2013-04-23 19:12:00,58.0,56.0,-100.00,SW,235,11.0,17.0,95,0.55,,,-99.99,,2013-04-23 23:12:00,
2013-04-23 19:22:00,58.0,56.0,-100.00,SW,230,10.0,14.0,95,0.55,,,-99.99,,2013-04-23 23:22:00,
2013-04-23 19:32:00,58.0,56.0,-100.00,SW,235,9.0,12.0,95,0.00,,,-99.99,,2013-04-23 23:32:00,
2013-04-23 19:42:00,58.0,56.0,-100.00,SW,230,7.0,11.0,95,0.00,,,-99.99,,2013-04-23 23:42:00,
2013-04-23 19:52:00,58.0,56.0,-100.00,SW,230,6.0,9.0,95,0.00,,,-99.99,,2013-04-23 23:52:00,
2013-04-23 20:02:00,57.0,56.0,-100.00,SW,235,4.0,6.0,95,0.00,,,-99.99,,2013-04-24 00:02:00,
2013-04-23 20:11:00,57.0,56.0,-100.00,WSW,255,4.0,5.0,95,0.00,,,-99.99,,2013-04-24 00:11:00,
2013-04-23 20:22:00,57.0,56.0,-100.00,West,265,4.0,5.0,95,0.00,,,-99.99,,2013-04-24 00:22:00,
2013-04-23 20:32:00,57.0,56.0,-100.00,West,280,3.0,6.0,96,3.39,,,-99.99,,2013-04-24 00:32:00,
2013-04-23 20:42:00,57.0,56.0,-100.00,WSW,245,2.0,4.0,96,2.83,,,-99.99,,2013-04-24 00:42:00,
2013-04-23 20:52:00,57.0,56.0,-100.00,SSW,210,2.0,3.0,96,3.39,,,-99.99,,2013-04-24 00:52:00,
2013-04-23 21:02:00,56.0,55.0,-100.00,SSW,200,1.0,3.0,96,3.94,,,-99.99,,2013-04-24 01:02:00,
2013-04-23 21:11:00,56.0,55.0,-100.00,South,185,1.0,1.0,96,14.72,,,-99.99,,2013-04-24 01:11:00,
2013-04-23 21:21:00,56.0,55.0,-100.00,South,190,2.0,3.0,96,1.69,,,-99.99,,2013-04-24 01:21:00,
2013-04-23 21:32:00,56.0,55.0,-100.00,SSW,200,2.0,3.0,96,5.08,,,-99.99,,2013-04-24 01:32:00,
2013-04-23 21:42:00,56.0,55.0,-100.00,SW,215,0.0,3.0,96,4.53,,,-99.99,,2013-04-24 01:42:00,
2013-04-23 21:52:00,56.0,55.0,-100.00,SSE,155,1.0,2.0,96,4.53,,,-99.99,,2013-04-24 01:52:00,
2013-04-23 22:02:00,56.0,55.0,-100.00,ESE,120,5.0,6.0,96,2.83,,,-99.99,,2013-04-24 02:02:00,
2013-04-23 22:18:00,56.0,55.0,-100.00,ESE,115,6.0,6.0,96,0.00,,,-99.99,,2013-04-24 02:18:00,
2013-04-23 22:30:00,56.0,55.0,-100.00,SE,135,4.0,6.0,96,2.83,,,-99.99,,2013-04-24 02:30:00,
2013-04-23 22:56:00,55.0,55.0,-100.00,SE,125,6.0,6.0,97,1.69,,,-99.99,,2013-04-24 02:56:00,
2013-04-23 23:11:00,55.0,55.0,-100.00,ESE,120,7.0,9.0,97,0.00,,,-99.99,,2013-04-24 03:11:00,
2013-04-23 23:17:00,56.0,55.0,-100.00,SE,145,7.0,9.0,97,1.10,,,-99.99,,2013-04-24 03:17:00,
2013-04-23 23:29:00,56.0,55.0,-100.00,SE,140,8.0,10.0,98,1.10,,,-99.99,,2013-04-24 03:29:00,
2013-04-23 23:41:00,56.0,55.0,-100.00,SE,145,8.0,11.0,98,3.39,,,-99.99,,2013-04-24 03:41:00,
2013-04-23 23:56:00,56.0,55.0,-100.00,SE,135,10.0,12.0,98,1.10,,,-99.99,,2013-04-24 03:56:00,